Location: Bluff Heights
(33.7692°N, 118.1592°W)
Time: 10:43:28
(UTC+00:00)

Tiros 1 - Pass Details

Date: 28 July 2021
Orbit: 630 x 663 km, 48.4° (Epoch: 22 September)

Event Time Altitude Azimuth Distance (km) Brightness Sun altitude
Rises 05:07:10 0° 285° (WNW) 2,968 11.5 -23.3°
Reaches altitude 10° 05:10:19 10° 306° (NW) 2,051 10.8 -23.7°
Maximum altitude 05:13:20 16° 346° (NNW) 1,656 9.9 -24.1°
Drops below altitude 10° 05:16:19 10° 25° (NNE) 2,039 9.9 -24.6°
Sets 05:19:27 0° 47° (NE) 2,942 10.6 -25.0°
